Location: Prague
(50.0830°N, 14.4670°E)
Time: 13:06:02
(UTC+01:00)

MOZHAYETS 4 - Visible Passes

Search period start: 06 December 2021 00:00
Search period end: 16 December 2021 00:00
Orbit: 660 x 680 km, 98.2° (Epoch: 06 December)

Date Brightness Start Highest point End Pass type
(mag) Time Alt. Az. Time Alt. Az. Time Alt. Az.
07 Dec 9.8 16:30:26 10° N 16:34:04 24° WNW 16:37:42 10° WSW visible
08 Dec 10.3 17:04:17 10° NNW 17:06:31 14° NW 17:08:45 10° W visible
10 Dec 9.8 16:31:49 10° N 16:35:26 23° WNW 16:39:01 10° WSW visible
11 Dec 10.3 17:05:42 10° NNW 17:07:52 13° NW 17:10:02 10° W visible
13 Dec 9.8 16:33:12 10° N 16:36:47 23° WNW 16:40:20 10° WSW visible
14 Dec 10.3 17:07:07 10° NNW 17:09:12 13° NW 17:11:18 10° W visible
